Location: Ocean City
(38.3360°N, 75.0850°W)
Time: 10:16:34
(UTC-04:00)

Max Valier Satellite - Pass Details

Date: 22 May 2019
Orbit: 492 x 507 km, 97.4° (Epoch: 19 June)

Event Time Altitude Azimuth Distance (km) Brightness Sun altitude
Exits shadow 20:56:40 10° 103° (ESE) 1,728 ? -8.6°
Reaches altitude 10° 20:56:47 10° 101° (E) 1,701 ? -8.6°
Maximum altitude 20:58:48 14° 68° (ENE) 1,453 ? -8.9°
Drops below altitude 10° 21:00:50 10° 34° (NE) 1,713 ? -9.2°
Sets 21:03:42 0° 10° (N) 2,607 ? -9.7°
